IZ2XCK-13 Weather Reports


time (UTC)temp
F
wind
direction
speed
knots
gust
knots
rain 1hr
in
rain 24hr
in
rain mn
in
humidity
%
barometer
mb
20260507034457 50 0.0 0.0 0.00 0.00 0.00 87 1013.4
20260507032457 51 0.0 0.0 0.00 0.00 0.00 87 1013.2
20260507030457 51 0.0 0.0 0.00 0.00 0.00 86 1013.2
20260507024457 50 0.0 0.0 0.00 0.00 0.00 86 1013.1
20260507022456 50 0.0 0.0 0.00 0.00 0.00 83 1013.2
20260507020456 51 0.0 0.0 0.00 0.00 0.00 87 1013.2
20260507014456 51 0.0 0.0 0.00 0.00 0.00 82 1013.0
20260507012455 51 0.0 0.0 0.00 0.00 0.00 84 1012.9
20260507010455 50 0.0 0.0 0.00 0.00 0.00 88 1013.1
20260507004455 51 0.0 0.0 0.00 0.00 0.00 91 1013.5
20260507002454 51 0.0 0.0 0.00 0.00 0.00 87 1012.9
20260507000454 51 0.0 0.0 0.00 0.00 0.00 90 1012.9
20260506234454 50 0.0 0.0 0.00 0.00 0.00 95 1013.1
20260506232453 51 0.0 0.0 0.00 0.00 0.00 85 1013.1
20260506230453 52 0.0 0.0 0.00 0.00 0.00 83 1013.2
20260506224453 51 0.0 0.0 0.00 0.00 0.00 90 1013.5
20260506222452 52 0.0 0.0 0.00 0.00 0.00 84 1013.5
20260506220452 51 0.0 0.0 0.00 0.00 0.00 86 1013.1
20260506214452 52 0.0 0.0 0.00 0.00 0.00 80 1013.0
20260506212451 51 0.0 0.0 0.00 0.00 0.00 81 1013.2
20260506210451 52 0.0 0.0 0.00 0.00 0.00 80 1013.2
20260506204451 51 0.0 0.0 0.00 0.00 0.00 84 1013.1
20260506202451 51 0.0 0.0 0.00 0.00 0.00 83 1013.2
20260506200450 51 0.0 0.0 0.00 0.00 0.00 85 1013.0
20260506194450 53 0.0 0.0 0.00 0.00 0.00 82 1012.8
20260506192555 51 0.0 0.0 0.00 0.00 0.00 90 1013.3
20260506184553 53 0.0 0.0 0.00 0.00 0.00 94 1013.0
20260506182552 55 0.0 0.0 0.00 0.00 0.00 88 1011.9
20260506180552 54 0.0 0.0 0.00 0.00 0.00 94 1011.2
20260506174552 55 0.0 0.0 0.00 0.00 0.00 89 1010.9
20260506172551 56 0.0 0.0 0.00 0.00 0.00 85 1010.6
20260506170551 55 0.0 0.0 0.00 0.00 0.00 93 1010.2
20260506164551 57 0.0 0.0 0.00 0.00 0.00 83 1009.4
20260506162551 57 0.0 0.0 0.00 0.00 0.00 82 1009.2
20260506160550 57 0.0 0.0 0.00 0.00 0.00 84 1009.1
20260506154550 58 0.0 0.0 0.00 0.00 0.00 80 1009.4
20260506152549 58 0.0 0.0 0.00 0.00 0.00 77 1009.4
20260506150549 57 0.0 0.0 0.00 0.00 0.00 86 1009.9
20260506144549 62 0.0 0.0 0.00 0.00 0.00 74 1010.1
20260506142549 57 0.0 0.0 0.00 0.00 0.00 90 1010.5
20260506140548 57 0.0 0.0 0.00 0.00 0.00 90 1010.6
20260506134548 58 0.0 0.0 0.00 0.00 0.00 84 1010.7
20260506132548 55 0.0 0.0 0.00 0.00 0.00 96 1010.8
20260506130547 58 0.0 0.0 0.00 0.00 0.00 91 1011.2
20260506124547 53 0.0 0.0 0.00 0.00 0.00 99 1011.5
20260506122547 53 0.0 0.0 0.00 0.00 0.00 98 1011.7
20260506120546 53 0.0 0.0 0.00 0.00 0.00 99 1011.8
20260506114546 54 0.0 0.0 0.00 0.00 0.00 94 1011.9
20260506112546 53 0.0 0.0 0.00 0.00 0.00 99 1011.7
20260506110545 55 0.0 0.0 0.00 0.00 0.00 78 1011.3
20260506104545 55 0.0 0.0 0.00 0.00 0.00 83 1011.6
20260506102545 53 0.0 0.0 0.00 0.00 0.00 99 1011.5
20260506100545 54 0.0 0.0 0.00 0.00 0.00 99 1010.6
20260506094544 54 0.0 0.0 0.00 0.00 0.00 99 1010.7
20260506092544 55 0.0 0.0 0.00 0.00 0.00 94 1011.3
20260506090544 53 0.0 0.0 0.00 0.00 0.00 89 1011.3
20260506084543 55 0.0 0.0 0.00 0.00 0.00 97 1011.3
20260506082543 53 0.0 0.0 0.00 0.00 0.00 99 1011.5
20260506080543 54 0.0 0.0 0.00 0.00 0.00 99 1011.4
20260506072542 53 0.0 0.0 0.00 0.00 0.00 99 1012.0
20260506070542 54 0.0 0.0 0.00 0.00 0.00 96 1012.1
20260506060541 54 0.0 0.0 0.00 0.00 0.00 91 1011.9
20260506050540 54 0.0 0.0 0.00 0.00 0.00 99 1012.3
20260506044540 53 0.0 0.0 0.00 0.00 0.00 99 1012.1
20260506042539 54 0.0 0.0 0.00 0.00 0.00 99 1011.6
20260506040539 54 0.0 0.0 0.00 0.00 0.00 98 1011.4